,,,PA_Meas_PMT16A,,PR_Meas_QMR101_102,,RH_Meas_QMH101,,SR_Meas_QMS101,,TA_Meas_QMH101,,GenWind,,GenWind,
date,time,status,PA,status,PR,status,RH,status,SR,status,TA,status,DirAvg,status,SpdAvg,
2008-05-17, 00:00:04,VALID,1011.15,VALID,0,VALID,94.6203,VALID,0,VALID,22.642,VALID,43,VALID,0,
2008-05-17, 00:01:04,VALID,1011.13,VALID,0,VALID,94.7424,VALID,0,VALID,22.642,VALID,43,VALID,0.317187,
2008-05-17, 00:02:04,VALID,1011.1,VALID,0,VALID,94.7729,VALID,0,VALID,22.6614,VALID,43,VALID,0.214453,
2008-05-17, 00:03:04,VALID,1011.11,VALID,0,VALID,94.7805,VALID,0,VALID,22.6614,VALID,43,VALID,0.277344,
2008-05-17, 00:04:04,VALID,1011.08,VALID,0,VALID,94.811,VALID,0,VALID,22.6632,VALID,43,VALID,0.376172,
2008-05-17, 00:05:04,VALID,1011.1,VALID,0,VALID,94.8186,VALID,0,VALID,22.6614,VALID,43,VALID,0.267969,
2008-05-17, 00:06:04,VALID,1011.07,VALID,0,VALID,94.8339,VALID,0,VALID,22.6809,VALID,43,VALID,0.255078,
2008-05-17, 00:07:04,VALID,1011.09,VALID,0,VALID,94.811,VALID,0,VALID,22.6597,VALID,43,VALID,0.253125,
2008-05-17, 00:08:04,VALID,1011.07,VALID,0,VALID,94.7652,VALID,0,VALID,22.6402,VALID,43,VALID,0.102344,
2008-05-17, 00:09:04,VALID,1011.04,VALID,0,VALID,94.75,VALID,0,VALID,22.642,VALID,43,VALID,0.141797,
2008-05-17, 00:10:04,VALID,1011,VALID,0,VALID,94.689,VALID,0,VALID,22.642,VALID,43,VALID,0.289063,
2008-05-17, 00:11:04,VALID,1011.02,VALID,0,VALID,94.6814,VALID,0,VALID,22.6225,VALID,43,VALID,0.275781,
2008-05-17, 00:12:04,VALID,1010.98,VALID,0,VALID,94.6508,VALID,0.105969,VALID,22.603,VALID,43,VALID,0.138672,
2008-05-17, 00:13:04,VALID,1010.97,VALID,0,VALID,94.6585,VALID,0,VALID,22.5835,VALID,43,VALID,0.188672,
2008-05-17, 00:14:04,VALID,1010.95,VALID,0,VALID,94.7271,VALID,0,VALID,22.5835,VALID,43,VALID,0.126172,
2008-05-17, 00:15:04,VALID,1010.94,VALID,0,VALID,94.7271,VALID,0,VALID,22.5835,VALID,43,VALID,0,
2008-05-17, 00:16:04,VALID,1010.94,VALID,0,VALID,94.811,VALID,0.105969,VALID,22.5835,VALID,43,VALID,0.235156,
2008-05-17, 00:17:04,VALID,1010.94,VALID,0,VALID,94.9101,VALID,0.105969,VALID,22.603,VALID,43,VALID,0.298438,
2008-05-17, 00:18:04,VALID,1010.91,VALID,0,VALID,94.8873,VALID,0,VALID,22.603,VALID,43,VALID,0.120703,
2008-05-17, 00:19:04,VALID,1010.91,VALID,0,VALID,94.8949,VALID,0.105969,VALID,22.6225,VALID,43,VALID,0.114453,
2008-05-17, 00:20:04,VALID,1010.88,VALID,0,VALID,94.8796,VALID,0,VALID,22.603,VALID,43,VALID,0.0128906,
2008-05-17, 00:21:04,VALID,1010.86,VALID,0,VALID,94.8949,VALID,0,VALID,22.6225,VALID,43,VALID,0,
2008-05-17, 00:22:04,VALID,1010.85,VALID,0,VALID,94.872,VALID,0,VALID,22.6225,VALID,43,VALID,0,
2008-05-17, 00:23:04,VALID,1010.84,VALID,0,VALID,94.8568,VALID,0,VALID,22.5835,VALID,43,VALID,0,
2008-05-17, 00:24:04,VALID,1010.8,VALID,0,VALID,94.8491,VALID,0,VALID,22.603,VALID,43,VALID,0,
2008-05-17, 00:25:04,VALID,1010.79,VALID,0,VALID,94.8568,VALID,0,VALID,22.603,VALID,43,VALID,0,
2008-05-17, 00:26:04,VALID,1010.75,VALID,0,VALID,94.872,VALID,0.105969,VALID,22.603,VALID,43,VALID,0,
2008-05-17, 00:27:04,VALID,1010.77,VALID,0,VALID,94.8415,VALID,0,VALID,22.564,VALID,43,VALID,0,
2008-05-17, 00:28:04,VALID,1010.74,VALID,0,VALID,94.872,VALID,0.105969,VALID,22.5623,VALID,43,VALID,0,
2008-05-17, 00:29:04,VALID,1010.75,VALID,0,VALID,94.8568,VALID,0,VALID,22.564,VALID,43,VALID,0,
2008-05-17, 00:30:04,VALID,1010.78,VALID,0,VALID,94.8644,VALID,0,VALID,22.564,VALID,43,VALID,0,
2008-05-17, 00:31:04,VALID,1010.74,VALID,0,VALID,94.933,VALID,0,VALID,22.5429,VALID,43,VALID,0.00429688,
2008-05-17, 00:32:04,VALID,1010.77,VALID,0,VALID,94.9711,VALID,0,VALID,22.5835,VALID,43,VALID,0,
2008-05-17, 00:33:04,VALID,1010.74,VALID,0,VALID,94.994,VALID,0.105969,VALID,22.5835,VALID,43,VALID,0,
2008-05-17, 00:34:04,VALID,1010.76,VALID,0,VALID,94.9788,VALID,0,VALID,22.603,VALID,43,VALID,0.0410156,
2008-05-17, 00:35:04,VALID,1010.72,VALID,0,VALID,94.9483,VALID,0.105969,VALID,22.5835,VALID,43,VALID,0.105859,
2008-05-17, 00:36:04,VALID,1010.72,VALID,0,VALID,94.933,VALID,0,VALID,22.5835,VALID,43,VALID,0,
2008-05-17, 00:37:04,VALID,1010.74,VALID,0,VALID,94.9025,VALID,0,VALID,22.5835,VALID,43,VALID,0,
2008-05-17, 00:38:04,VALID,1010.68,VALID,0,VALID,94.9178,VALID,0,VALID,22.6047,VALID,43,VALID,0,
2008-05-17, 00:39:04,VALID,1010.7,VALID,0,VALID,94.9483,VALID,0,VALID,22.5852,VALID,43,VALID,0,
2008-05-17, 00:40:04,VALID,1010.65,VALID,0,VALID,94.9254,VALID,0,VALID,22.5835,VALID,43,VALID,0,
2008-05-17, 00:41:04,VALID,1010.64,VALID,0,VALID,94.9101,VALID,0.105969,VALID,22.5835,VALID,43,VALID,0,
2008-05-17, 00:42:04,VALID,1010.63,VALID,0,VALID,94.9254,VALID,0,VALID,22.564,VALID,43,VALID,0,
2008-05-17, 00:43:04,VALID,1010.6,VALID,0,VALID,94.933,VALID,0,VALID,22.5429,VALID,43,VALID,0,
2008-05-17, 00:44:04,VALID,1010.59,VALID,0,VALID,94.933,VALID,0,VALID,22.564,VALID,43,VALID,0,
2008-05-17, 00:45:04,VALID,1010.56,VALID,0,VALID,94.9178,VALID,0,VALID,22.564,VALID,43,VALID,0,
2008-05-17, 00:46:04,VALID,1010.54,VALID,0,VALID,94.933,VALID,0,VALID,22.5446,VALID,43,VALID,0,
2008-05-17, 00:47:04,VALID,1010.53,VALID,0,VALID,94.9101,VALID,0.105969,VALID,22.5446,VALID,43,VALID,0,
2008-05-17, 00:48:04,VALID,1010.51,VALID,0,VALID,94.9178,VALID,0,VALID,22.5446,VALID,43,VALID,0,
2008-05-17, 00:49:04,VALID,1010.47,VALID,0,VALID,94.9406,VALID,0,VALID,22.5251,VALID,43,VALID,0,
2008-05-17, 00:50:04,VALID,1010.44,VALID,0,VALID,94.9788,VALID,0,VALID,22.5234,VALID,43,VALID,0,
2008-05-17, 00:51:04,VALID,1010.38,VALID,0,VALID,94.9559,VALID,0,VALID,22.5251,VALID,43,VALID,0,
2008-05-17, 00:52:04,VALID,1010.4,VALID,0,VALID,94.9178,VALID,0,VALID,22.5463,VALID,43,VALID,0,
2008-05-17, 00:53:04,VALID,1010.37,VALID,0,VALID,94.8949,VALID,0,VALID,22.5251,VALID,43,VALID,0,
2008-05-17, 00:54:04,VALID,1010.32,VALID,0,VALID,94.872,VALID,0,VALID,22.5056,VALID,43,VALID,0,
2008-05-17, 00:55:04,VALID,1010.28,VALID,0,VALID,94.8568,VALID,0,VALID,22.4861,VALID,43,VALID,0,
2008-05-17, 00:56:04,VALID,1010.28,VALID,0,VALID,94.8644,VALID,0,VALID,22.4861,VALID,43,VALID,0,
2008-05-17, 00:57:04,VALID,1010.25,VALID,0,VALID,94.8644,VALID,0,VALID,22.4861,VALID,43,VALID,0,
2008-05-17, 00:58:04,VALID,1010.24,VALID,0,VALID,94.9178,VALID,0.105969,VALID,22.4667,VALID,43,VALID,0,
2008-05-17, 00:59:04,VALID,1010.19,VALID,0,VALID,94.9406,VALID,0,VALID,22.4667,VALID,43,VALID,0,
2008-05-17, 01:00:04,VALID,1010.17,VALID,0,VALID,94.9483,VALID,0,VALID,22.4667,VALID,43,VALID,0,
2008-05-17, 01:01:04,VALID,1010.15,VALID,0,VALID,94.9025,VALID,0.105969,VALID,22.4472,VALID,43,VALID,0,
2008-05-17, 01:02:04,VALID,1010.15,VALID,0,VALID,94.8568,VALID,0,VALID,22.4082,VALID,43,VALID,0,
2008-05-17, 01:03:04,VALID,1010.12,VALID,0,VALID,94.8949,VALID,0,VALID,22.4082,VALID,43,VALID,0,
2008-05-17, 01:04:04,VALID,1010.12,VALID,0,VALID,94.8796,VALID,0,VALID,22.3887,VALID,43,VALID,0,
2008-05-17, 01:05:04,VALID,1010.14,VALID,0,VALID,94.8873,VALID,0,VALID,22.3887,VALID,43,VALID,0,
2008-05-17, 01:06:04,VALID,1010.1,VALID,0,VALID,94.8949,VALID,0.105969,VALID,22.3481,VALID,43,VALID,0,
2008-05-17, 01:07:04,VALID,1010.09,VALID,0,VALID,94.9101,VALID,0,VALID,22.3498,VALID,43,VALID,0,
2008-05-17, 01:08:04,VALID,1010.06,VALID,0,VALID,94.9788,VALID,0,VALID,22.3693,VALID,43,VALID,0,
2008-05-17, 01:09:04,VALID,1010.05,VALID,0,VALID,95.0321,VALID,0,VALID,22.3693,VALID,43,VALID,0,
2008-05-17, 01:10:04,VALID,1010.04,VALID,0,VALID,95.0474,VALID,0,VALID,22.3693,VALID,43,VALID,0,
2008-05-17, 01:11:04,VALID,1010,VALID,0,VALID,95.0016,VALID,0,VALID,22.3498,VALID,43,VALID,0,
2008-05-17, 01:12:04,VALID,1009.98,VALID,0,VALID,94.9254,VALID,0,VALID,22.2897,VALID,43,VALID,0,
2008-05-17, 01:13:04,VALID,1009.95,VALID,0,VALID,94.9101,VALID,0,VALID,22.2914,VALID,43,VALID,0,
2008-05-17, 01:14:04,VALID,1009.95,VALID,0,VALID,94.9559,VALID,0,VALID,22.2914,VALID,43,VALID,0,
2008-05-17, 01:15:04,VALID,1009.95,VALID,0,VALID,94.9254,VALID,0,VALID,22.2719,VALID,43,VALID,0,
2008-05-17, 01:16:04,VALID,1009.95,VALID,0,VALID,94.9178,VALID,0,VALID,22.2329,VALID,43,VALID,0,
2008-05-17, 01:17:04,VALID,1009.94,VALID,0,VALID,94.9559,VALID,0,VALID,22.2524,VALID,43,VALID,0,
2008-05-17, 01:18:04,VALID,1009.91,VALID,0,VALID,95.0016,VALID,0,VALID,22.2329,VALID,43,VALID,0,
2008-05-17, 01:19:04,VALID,1009.9,VALID,0,VALID,94.994,VALID,0,VALID,22.2524,VALID,43,VALID,0,
2008-05-17, 01:20:04,VALID,1009.86,VALID,0,VALID,95.0016,VALID,0,VALID,22.2541,VALID,43,VALID,0,
2008-05-17, 01:21:04,VALID,1009.89,VALID,0,VALID,94.994,VALID,0,VALID,22.2134,VALID,43,VALID,0,
2008-05-17, 01:22:05,VALID,1009.89,VALID,0,VALID,94.994,VALID,0,VALID,22.194,VALID,43,VALID,0,
2008-05-17, 01:23:05,VALID,1009.87,VALID,0,VALID,94.9406,VALID,0,VALID,22.1957,VALID,43,VALID,0,
2008-05-17, 01:24:05,VALID,1009.87,VALID,0,VALID,94.9635,VALID,0,VALID,22.1745,VALID,43,VALID,0,
2008-05-17, 01:25:05,VALID,1009.85,VALID,0,VALID,95.0321,VALID,0,VALID,22.1745,VALID,43,VALID,0,
2008-05-17, 01:26:05,VALID,1009.86,VALID,0,VALID,95.1542,VALID,0,VALID,22.194,VALID,43,VALID,0,
2008-05-17, 01:27:05,VALID,1009.86,VALID,0,VALID,95.1694,VALID,0,VALID,22.2134,VALID,43,VALID,0,
2008-05-17, 01:28:05,VALID,1009.85,VALID,0,VALID,95.1694,VALID,0,VALID,22.2134,VALID,43,VALID,0.0597656,
2008-05-17, 01:29:05,VALID,1009.82,VALID,0,VALID,95.1618,VALID,0,VALID,22.2134,VALID,43,VALID,0.00507812,
2008-05-17, 01:30:05,VALID,1009.82,VALID,0,VALID,95.1694,VALID,0,VALID,22.2134,VALID,43,VALID,0,
2008-05-17, 01:31:05,VALID,1009.83,VALID,0,VALID,95.1618,VALID,0,VALID,22.194,VALID,43,VALID,0.0304688,
2008-05-17, 01:32:05,VALID,1009.83,VALID,0,VALID,95.1389,VALID,0.105969,VALID,22.194,VALID,43,VALID,0.0496094,
2008-05-17, 01:33:05,VALID,1009.81,VALID,0,VALID,95.1313,VALID,0,VALID,22.194,VALID,43,VALID,0,
2008-05-17, 01:34:05,VALID,1009.85,VALID,0,VALID,95.1389,VALID,0.105969,VALID,22.1745,VALID,43,VALID,0,
2008-05-17, 01:35:05,VALID,1009.84,VALID,0,VALID,95.1465,VALID,0,VALID,22.1745,VALID,43,VALID,0,
2008-05-17, 01:36:05,VALID,1009.82,VALID,0,VALID,95.1236,VALID,0,VALID,22.155,VALID,43,VALID,0,
2008-05-17, 01:37:05,VALID,1009.81,VALID,0,VALID,95.1084,VALID,0,VALID,22.1567,VALID,43,VALID,0,
2008-05-17, 01:38:05,VALID,1009.8,VALID,0,VALID,95.1008,VALID,0,VALID,22.1161,VALID,43,VALID,0,
2008-05-17, 01:39:05,VALID,1009.78,VALID,0,VALID,95.0703,VALID,0,VALID,22.1161,VALID,43,VALID,0,
2008-05-17, 01:40:05,VALID,1009.75,VALID,0,VALID,95.0779,VALID,0,VALID,22.1177,VALID,43,VALID,0,
2008-05-17, 01:41:05,VALID,1009.73,VALID,0,VALID,95.0169,VALID,0,VALID,22.0576,VALID,43,VALID,0,
2008-05-17, 01:42:05,VALID,1009.72,VALID,0,VALID,95.0093,VALID,0,VALID,22.0576,VALID,43,VALID,0,
2008-05-17, 01:43:05,VALID,1009.67,VALID,0,VALID,95.0245,VALID,0,VALID,22.0576,VALID,43,VALID,0,
2008-05-17, 01:44:05,VALID,1009.69,VALID,0,VALID,95.0474,VALID,0,VALID,22.0382,VALID,43,VALID,0,
2008-05-17, 01:45:05,VALID,1009.7,VALID,0,VALID,95.0245,VALID,0,VALID,22.0382,VALID,43,VALID,0,
2008-05-17, 01:46:05,VALID,1009.68,VALID,0,VALID,95.0855,VALID,0,VALID,22.0382,VALID,43,VALID,0,
2008-05-17, 01:47:05,VALID,1009.66,VALID,0,VALID,95.1236,VALID,0,VALID,22.0576,VALID,43,VALID,0,
2008-05-17, 01:48:05,VALID,1009.65,VALID,0,VALID,95.0931,VALID,0,VALID,22.0382,VALID,43,VALID,0,
2008-05-17, 01:49:05,VALID,1009.65,VALID,0,VALID,95.1084,VALID,0,VALID,22.0576,VALID,43,VALID,0,
2008-05-17, 01:50:05,VALID,1009.65,VALID,0,VALID,95.116,VALID,0.105969,VALID,22.0576,VALID,43,VALID,0,
2008-05-17, 01:51:05,VALID,1009.67,VALID,0,VALID,95.1313,VALID,0,VALID,22.0187,VALID,43,VALID,0,
2008-05-17, 01:52:05,VALID,1009.66,VALID,0,VALID,95.1008,VALID,0,VALID,22.0382,VALID,43,VALID,0,
2008-05-17, 01:53:05,VALID,1009.68,VALID,0,VALID,95.1313,VALID,0,VALID,22.0398,VALID,43,VALID,0,
2008-05-17, 01:54:05,VALID,1009.68,VALID,0,VALID,95.1389,VALID,0.105969,VALID,22.0187,VALID,43,VALID,0,
2008-05-17, 01:55:05,VALID,1009.65,VALID,0,VALID,95.1694,VALID,0,VALID,22.0187,VALID,43,VALID,0,
2008-05-17, 01:56:05,VALID,1009.67,VALID,0,VALID,95.2533,VALID,0,VALID,22.0382,VALID,43,VALID,0,
2008-05-17, 01:57:05,VALID,1009.68,VALID,0,VALID,95.2762,VALID,0,VALID,22.0788,VALID,43,VALID,0.188281,
2008-05-17, 01:58:05,VALID,1009.69,VALID,0,VALID,95.2762,VALID,0,VALID,22.0593,VALID,43,VALID,0.107813,
2008-05-17, 01:59:05,VALID,1009.7,VALID,0,VALID,95.2533,VALID,0,VALID,22.0576,VALID,43,VALID,0,
2008-05-17, 02:00:05,VALID,1009.72,VALID,0,VALID,95.3219,VALID,0,VALID,22.0576,VALID,43,VALID,0.237891,
2008-05-17, 02:01:05,VALID,1009.69,VALID,0,VALID,95.3295,VALID,0,VALID,22.0576,VALID,43,VALID,0.235547,
2008-05-17, 02:02:05,VALID,1009.67,VALID,0,VALID,95.2838,VALID,0,VALID,22.0593,VALID,43,VALID,0.235938,
2008-05-17, 02:03:05,VALID,1009.65,VALID,0,VALID,95.177,VALID,0,VALID,21.9992,VALID,43,VALID,0.144141,
2008-05-17, 02:04:05,VALID,1009.65,VALID,0,VALID,95.0398,VALID,0,VALID,21.9408,VALID,43,VALID,0.331641,
2008-05-17, 02:05:05,VALID,1009.66,VALID,0,VALID,95.055,VALID,0,VALID,21.9018,VALID,43,VALID,0.335547,
2008-05-17, 02:06:05,VALID,1009.66,VALID,0,VALID,95.0093,VALID,0,VALID,21.8824,VALID,43,VALID,0.323438,
2008-05-17, 02:07:05,VALID,1009.7,VALID,0,VALID,95.0703,VALID,0.105969,VALID,21.8824,VALID,43,VALID,0.298438,
2008-05-17, 02:08:05,VALID,1009.69,VALID,0,VALID,95.1008,VALID,0,VALID,21.8434,VALID,43,VALID,0.346094,
2008-05-17, 02:09:05,VALID,1009.72,VALID,0,VALID,95.1084,VALID,0,VALID,21.8434,VALID,43,VALID,0.300781,
2008-05-17, 02:10:05,VALID,1009.73,VALID,0,VALID,95.0703,VALID,0,VALID,21.8045,VALID,43,VALID,0.240625,
2008-05-17, 02:11:05,VALID,1009.74,VALID,0,VALID,95.0703,VALID,0,VALID,21.785,VALID,43,VALID,0.275781,
2008-05-17, 02:12:05,VALID,1009.71,VALID,0,VALID,95.0245,VALID,0,VALID,21.7655,VALID,43,VALID,0.425,
2008-05-17, 02:13:05,VALID,1009.7,VALID,0,VALID,95.0321,VALID,0,VALID,21.7477,VALID,43,VALID,0.347266,
2008-05-17, 02:14:05,VALID,1009.69,VALID,0,VALID,95.055,VALID,0,VALID,21.7266,VALID,43,VALID,0.210938,
2008-05-17, 02:15:05,VALID,1009.71,VALID,0,VALID,95.0855,VALID,0,VALID,21.6876,VALID,43,VALID,0,
2008-05-17, 02:16:05,VALID,1009.71,VALID,0,VALID,95.116,VALID,0,VALID,21.6876,VALID,43,VALID,0,
2008-05-17, 02:17:05,VALID,1009.71,VALID,0,VALID,95.1236,VALID,0,VALID,21.6681,VALID,43,VALID,0.0769531,
2008-05-17, 02:18:05,VALID,1009.71,VALID,0,VALID,95.2075,VALID,0,VALID,21.6681,VALID,43,VALID,0.404687,
2008-05-17, 02:19:05,VALID,1009.71,VALID,0,VALID,95.2228,VALID,0,VALID,21.6681,VALID,43,VALID,0.149219,
2008-05-17, 02:20:05,VALID,1009.71,VALID,0,VALID,95.238,VALID,0,VALID,21.6487,VALID,43,VALID,0,
2008-05-17, 02:21:05,VALID,1009.7,VALID,0,VALID,95.2685,VALID,0,VALID,21.6893,VALID,43,VALID,0.0105469,
2008-05-17, 02:22:05,VALID,1009.71,VALID,0,VALID,95.3372,VALID,0,VALID,21.6681,VALID,43,VALID,0.306641,
2008-05-17, 02:23:05,VALID,1009.68,VALID,0,VALID,95.3829,VALID,0,VALID,21.6681,VALID,43,VALID,0.353125,
2008-05-17, 02:24:05,VALID,1009.65,VALID,0,VALID,95.4287,VALID,0,VALID,21.6681,VALID,43,VALID,0.416797,
2008-05-17, 02:25:05,VALID,1009.67,VALID,0,VALID,95.4134,VALID,0,VALID,21.6681,VALID,43,VALID,0.148047,
2008-05-17, 02:26:05,VALID,1009.68,VALID,0,VALID,95.4592,VALID,0,VALID,21.6893,VALID,43,VALID,0.285156,
2008-05-17, 02:27:05,VALID,1009.66,VALID,0,VALID,95.5354,VALID,0,VALID,21.7071,VALID,10,VALID,0.430469,
2008-05-17, 02:28:05,VALID,1009.64,VALID,0,VALID,95.5202,VALID,0,VALID,21.7071,VALID,10,VALID,0.497266,
2008-05-17, 02:29:05,VALID,1009.66,VALID,0,VALID,95.5202,VALID,0,VALID,21.7071,VALID,10,VALID,0.140625,
2008-05-17, 02:30:05,VALID,1009.67,VALID,0,VALID,95.4821,VALID,0.105969,VALID,21.6681,VALID,11,VALID,0.379687,
2008-05-17, 02:31:05,VALID,1009.67,VALID,0,VALID,95.4668,VALID,0,VALID,21.6681,VALID,23,VALID,0.539063,
2008-05-17, 02:32:05,VALID,1009.65,VALID,0,VALID,95.4973,VALID,0,VALID,21.6487,VALID,23,VALID,0.266016,
2008-05-17, 02:33:05,VALID,1009.64,VALID,0,VALID,95.5354,VALID,0,VALID,21.6681,VALID,23,VALID,0.254297,
2008-05-17, 02:34:05,VALID,1009.63,VALID,0,VALID,95.5126,VALID,0,VALID,21.6487,VALID,23,VALID,0.334375,
2008-05-17, 02:35:05,VALID,1009.63,VALID,0,VALID,95.5431,VALID,0,VALID,21.6681,VALID,23,VALID,0.400391,
2008-05-17, 02:36:05,VALID,1009.59,VALID,0,VALID,95.5583,VALID,0,VALID,21.6487,VALID,23,VALID,0.368359,
2008-05-17, 02:37:05,VALID,1009.59,VALID,0,VALID,95.5888,VALID,0,VALID,21.6487,VALID,23,VALID,0.217969,
2008-05-17, 02:38:05,VALID,1009.6,VALID,0,VALID,95.5354,VALID,0,VALID,21.6487,VALID,23,VALID,0.307813,
2008-05-17, 02:39:05,VALID,1009.6,VALID,0,VALID,95.5354,VALID,0.105969,VALID,21.6292,VALID,23,VALID,0.220313,
2008-05-17, 02:40:05,VALID,1009.6,VALID,0,VALID,95.5431,VALID,0,VALID,21.6292,VALID,23,VALID,0.263672,
2008-05-17, 02:41:05,VALID,1009.61,VALID,0,VALID,95.5583,VALID,0,VALID,21.6292,VALID,23,VALID,0.177734,
2008-05-17, 02:42:05,VALID,1009.59,VALID,0,VALID,95.5354,VALID,0.105969,VALID,21.6308,VALID,23,VALID,0.3625,
2008-05-17, 02:43:05,VALID,1009.59,VALID,0,VALID,95.5431,VALID,0,VALID,21.6097,VALID,23,VALID,0.307031,
2008-05-17, 02:44:05,VALID,1009.58,VALID,0,VALID,95.5431,VALID,0,VALID,21.5902,VALID,23,VALID,0.111328,
2008-05-17, 02:45:05,VALID,1009.56,VALID,0,VALID,95.5888,VALID,0.105969,VALID,21.6097,VALID,23,VALID,0.01875,
2008-05-17, 02:46:05,VALID,1009.57,VALID,0,VALID,95.6041,VALID,0,VALID,21.5902,VALID,23,VALID,0.355078,
2008-05-17, 02:47:05,VALID,1009.55,VALID,0,VALID,95.6269,VALID,0,VALID,21.6097,VALID,23,VALID,0.460547,
2008-05-17, 02:48:05,VALID,1009.56,VALID,0,VALID,95.5964,VALID,0,VALID,21.5902,VALID,23,VALID,0.401953,
2008-05-17, 02:49:05,VALID,1009.57,VALID,0,VALID,95.5583,VALID,0,VALID,21.5902,VALID,26,VALID,0.375781,
2008-05-17, 02:50:05,VALID,1009.58,VALID,0,VALID,95.6269,VALID,0,VALID,21.5902,VALID,27,VALID,0.444531,
2008-05-17, 02:51:05,VALID,1009.61,VALID,0,VALID,95.6346,VALID,0.105969,VALID,21.5902,VALID,27,VALID,0.245703,
2008-05-17, 02:52:05,VALID,1009.6,VALID,0,VALID,95.6498,VALID,0,VALID,21.5708,VALID,26,VALID,0.152734,
2008-05-17, 02:53:05,VALID,1009.61,VALID,0,VALID,95.6956,VALID,0,VALID,21.6097,VALID,27,VALID,0.226563,
2008-05-17, 02:54:05,VALID,1009.65,VALID,0,VALID,95.7108,VALID,0.105969,VALID,21.6292,VALID,26,VALID,0.144141,
2008-05-17, 02:55:05,VALID,1009.67,VALID,0,VALID,95.6956,VALID,0.105969,VALID,21.6097,VALID,27,VALID,0.214453,
2008-05-17, 02:56:05,VALID,1009.68,VALID,0,VALID,95.688,VALID,0,VALID,21.6097,VALID,27,VALID,0.247656,
2008-05-17, 02:57:05,VALID,1009.67,VALID,0,VALID,95.688,VALID,0,VALID,21.6097,VALID,26,VALID,0.180859,
2008-05-17, 02:58:05,VALID,1009.66,VALID,0,VALID,95.6956,VALID,0.105969,VALID,21.5886,VALID,26,VALID,0.0824219,
2008-05-17, 02:59:05,VALID,1009.64,VALID,0,VALID,95.688,VALID,0,VALID,21.6097,VALID,27,VALID,0,
2008-05-17, 03:00:05,VALID,1009.61,VALID,0,VALID,95.6422,VALID,0.105969,VALID,21.5708,VALID,26,VALID,0.263281,
2008-05-17, 03:01:05,VALID,1009.6,VALID,0,VALID,95.6727,VALID,0.105969,VALID,21.5708,VALID,26,VALID,0.328125,
2008-05-17, 03:02:05,VALID,1009.59,VALID,0,VALID,95.6574,VALID,0.105969,VALID,21.5708,VALID,27,VALID,0.301562,
2008-05-17, 03:03:05,VALID,1009.63,VALID,0,VALID,95.6727,VALID,0.105969,VALID,21.5708,VALID,26,VALID,0.282031,
2008-05-17, 03:04:05,VALID,1009.65,VALID,0,VALID,95.688,VALID,0.105969,VALID,21.5708,VALID,27,VALID,0.228125,
2008-05-17, 03:05:05,VALID,1009.69,VALID,0,VALID,95.7261,VALID,0.105969,VALID,21.5497,VALID,27,VALID,0.255078,
2008-05-17, 03:06:05,VALID,1009.72,VALID,0,VALID,95.7261,VALID,0.105969,VALID,21.5902,VALID,26,VALID,0.164453,
2008-05-17, 03:07:05,VALID,1009.74,VALID,0,VALID,95.7413,VALID,0.105969,VALID,21.6114,VALID,26,VALID,0.167578,
2008-05-17, 03:08:05,VALID,1009.76,VALID,0,VALID,95.7337,VALID,0.105969,VALID,21.5902,VALID,27,VALID,0.216406,
2008-05-17, 03:09:05,VALID,1009.74,VALID,0,VALID,95.7566,VALID,0.105969,VALID,21.5886,VALID,27,VALID,0.250781,
2008-05-17, 03:10:05,VALID,1009.72,VALID,0,VALID,95.7718,VALID,0.105969,VALID,21.5902,VALID,27,VALID,0.275781,
2008-05-17, 03:11:05,VALID,1009.71,VALID,0,VALID,95.7718,VALID,0.105969,VALID,21.6097,VALID,26,VALID,0.333984,
2008-05-17, 03:12:05,VALID,1009.72,VALID,0,VALID,95.7566,VALID,0.105969,VALID,21.6097,VALID,27,VALID,0.358594,
2008-05-17, 03:13:05,VALID,1009.76,VALID,0,VALID,95.7413,VALID,0,VALID,21.5902,VALID,27,VALID,0.300781,
2008-05-17, 03:14:05,VALID,1009.76,VALID,0,VALID,95.7185,VALID,0.105969,VALID,21.5691,VALID,27,VALID,0.255078,
2008-05-17, 03:15:05,VALID,1009.82,VALID,0,VALID,95.7185,VALID,0.105969,VALID,21.5708,VALID,26,VALID,0.0835937,
2008-05-17, 03:16:05,VALID,1009.82,VALID,0,VALID,95.7261,VALID,0,VALID,21.5708,VALID,27,VALID,0.0699219,
2008-05-17, 03:17:05,VALID,1009.84,VALID,0,VALID,95.749,VALID,0.105969,VALID,21.5513,VALID,27,VALID,0.136719,
2008-05-17, 03:18:05,VALID,1009.87,VALID,0,VALID,95.8176,VALID,0.105969,VALID,21.5691,VALID,26,VALID,0.0078125,
2008-05-17, 03:19:05,VALID,1009.86,VALID,0,VALID,95.7566,VALID,0.105969,VALID,21.5302,VALID,26,VALID,0,
2008-05-17, 03:20:05,VALID,1009.87,VALID,0,VALID,95.7337,VALID,0.105969,VALID,21.5124,VALID,27,VALID,0,
2008-05-17, 03:21:05,VALID,1009.89,VALID,0,VALID,95.7337,VALID,0,VALID,21.4929,VALID,26,VALID,0.176172,
2008-05-17, 03:22:05,VALID,1009.88,VALID,0,VALID,95.7413,VALID,0.105969,VALID,21.4929,VALID,27,VALID,0.00585938,
2008-05-17, 03:23:05,VALID,1009.88,VALID,0,VALID,95.749,VALID,0.105969,VALID,21.4718,VALID,27,VALID,0,
2008-05-17, 03:24:05,VALID,1009.84,VALID,0,VALID,95.749,VALID,0.105969,VALID,21.4929,VALID,27,VALID,0,
2008-05-17, 03:25:05,VALID,1009.81,VALID,0,VALID,95.749,VALID,0.105969,VALID,21.4718,VALID,26,VALID,0,
2008-05-17, 03:26:05,VALID,1009.81,VALID,0,VALID,95.7642,VALID,0.105969,VALID,21.4929,VALID,27,VALID,0.157031,
2008-05-17, 03:27:05,VALID,1009.83,VALID,0,VALID,95.7871,VALID,0.105969,VALID,21.4718,VALID,26,VALID,0.183203,
2008-05-17, 03:28:05,VALID,1009.86,VALID,0,VALID,95.81,VALID,0,VALID,21.4945,VALID,27,VALID,0.171484,
2008-05-17, 03:29:05,VALID,1009.84,VALID,0,VALID,95.8405,VALID,0,VALID,21.4945,VALID,27,VALID,0.208203,
2008-05-17, 03:30:05,VALID,1009.86,VALID,0,VALID,95.871,VALID,0,VALID,21.5124,VALID,27,VALID,0.196875,
2008-05-17, 03:31:05,VALID,1009.9,VALID,0,VALID,95.8328,VALID,0,VALID,21.514,VALID,26,VALID,0.0714844,
2008-05-17, 03:32:05,VALID,1009.88,VALID,0,VALID,95.8023,VALID,0,VALID,21.4945,VALID,27,VALID,0,
2008-05-17, 03:33:05,VALID,1009.9,VALID,0,VALID,95.8023,VALID,0,VALID,21.514,VALID,27,VALID,0,
2008-05-17, 03:34:05,VALID,1009.9,VALID,0,VALID,95.7871,VALID,0,VALID,21.4539,VALID,26,VALID,0.00078125,
2008-05-17, 03:35:05,VALID,1009.92,VALID,0,VALID,95.8405,VALID,0,VALID,21.4945,VALID,26,VALID,0.221094,
2008-05-17, 03:36:05,VALID,1009.9,VALID,0,VALID,95.871,VALID,0,VALID,21.514,VALID,27,VALID,0.204297,
2008-05-17, 03:37:05,VALID,1009.93,VALID,0,VALID,95.8405,VALID,0,VALID,21.4929,VALID,27,VALID,0.224219,
2008-05-17, 03:38:05,VALID,1009.94,VALID,0,VALID,95.8557,VALID,0,VALID,21.514,VALID,26,VALID,0.169531,
2008-05-17, 03:39:05,VALID,1009.94,VALID,0,VALID,95.8405,VALID,0,VALID,21.514,VALID,26,VALID,0.0671875,
2008-05-17, 03:40:05,VALID,1009.94,VALID,0,VALID,95.8252,VALID,0,VALID,21.4945,VALID,27,VALID,0,
2008-05-17, 03:41:05,VALID,1009.95,VALID,0,VALID,95.8176,VALID,0,VALID,21.4945,VALID,26,VALID,0,
2008-05-17, 03:42:05,VALID,1009.95,VALID,0,VALID,95.7947,VALID,0,VALID,21.4734,VALID,27,VALID,0,
2008-05-17, 03:43:05,VALID,1009.97,VALID,0,VALID,95.7947,VALID,0.105969,VALID,21.4929,VALID,27,VALID,0,
2008-05-17, 03:44:05,VALID,1010.01,VALID,0,VALID,95.8023,VALID,0.105969,VALID,21.4734,VALID,27,VALID,0,
2008-05-17, 03:45:05,VALID,1010.03,VALID,0,VALID,95.81,VALID,0.105969,VALID,21.4734,VALID,26,VALID,0,
2008-05-17, 03:46:05,VALID,1010.02,VALID,0,VALID,95.8023,VALID,0.105969,VALID,21.4734,VALID,26,VALID,0,
2008-05-17, 03:47:05,VALID,1010.04,VALID,0,VALID,95.7795,VALID,0.105969,VALID,21.4734,VALID,27,VALID,0,
2008-05-17, 03:48:05,VALID,1010.05,VALID,0,VALID,95.8252,VALID,0,VALID,21.4539,VALID,27,VALID,0,
2008-05-17, 03:49:05,VALID,1010.02,VALID,0,VALID,95.871,VALID,0.105969,VALID,21.4734,VALID,27,VALID,0,
2008-05-17, 03:50:05,VALID,1010.02,VALID,0,VALID,95.8405,VALID,0.105969,VALID,21.4539,VALID,27,VALID,0,